TIME,DELAY(SENSOR),PRES,OXYGEN,RAWTEMP,T(OPTODE),TCPHASE,FLUOR,BETA(BETA700),BETA(BETA412),BETA(BETA440),CDOM,C(CSC),ED(ED412.40),ED(ED444.00),ED(ED489.70),ED(ED554.30),LU(LU411.80),LU(LU443.40),LU(LU489.60),LU(LU554.10),COMP,TILTX,TILTY,CHECK
1334117511,5808,899.7199707031250000,40.7539596557617200,658.7526855468750000,4.6690268516540530,54.8653907775878900,53,101,90,79,82,15243,2147756406,2147421147,2148005677,2147875218,2147643026,2147067200,2148257097,2147199762,2628,4,14,4425
1334121107,5811,968.3400268554688000,45.2736015319824200,669.3233032226562000,4.3205490112304690,54.3316307067871100,53,101,88,80,84,15245,2147755501,2147422025,2148004425,2147873380,2147645330,2147066541,2148262281,2147202934,2957,4,13,24971
1334124707,5806,995.0499877929688000,46.9412002563476560,671.8599853515625000,4.2367358207702640,54.1242294311523440,54,99,91,79,83,15245,2147758381,2147422985,2148004041,2147874496,2147641206,2147062272,2148261549,2147202806,470,4,13,59088
1334128307,5811,1001.4099731445312000,45.9580383300781250,671.1752929687500000,4.2593650817871090,54.2561302185058600,53,102,87,78,83,15243,2147758125,2147424237,2148006427,2147875117,2147641746,2147063442,2148258660,2147202477,232,4,14,36421
1334131907,5807,1005.9400024414062000,46.1600189208984400,671.9404296875000000,4.2340760231018070,54.2351913452148440,52,99,86,80,83,15242,2147758820,2147422802,2148004434,2147872676,2147643099,2147065252,2148262217,2147198820,3429,4,13,42651
1334135507,5807,1005.1699829101562000,46.2332305908203100,672.6118164062500000,4.2118840217590330,54.2306785583496100,52,99,88,80,84,15172,2147760932,2147421549,2148008768,2147874230,2147646390,2147065929,2148261046,2147197101,3366,4,13,56467
1334139107,5808,1012.8499755859375000,45.8758506774902340,671.7971801757812000,4.2388100624084470,54.2738494873046900,53,102,88,81,84,15174,2147757787,2147420662,2148007305,2147876534,2147645961,2147071460,2148260608,2147199798,690,4,13,20920
1334142707,5806,1008.3599853515625000,45.5787696838378900,671.7930908203125000,4.2389469146728520,54.3130111694335940,54,100,88,78,83,15172,2147758226,2147422336,2148007478,2147873270,2147644480,2147065947,2148265654,2147201846,115,4,13,27744
1334146307,5809,1013.2700195312500000,45.4607582092285160,671.8156127929688000,4.2382030487060550,54.3281288146972660,53,99,88,79,84,15174,2147762386,2147421147,2148008548,2147874761,2147643245,2147069348,2148263515,2147198601,121,4,13,37839
1334149907,5811,1013.5900268554688000,45.4066696166992200,671.7838745117188000,4.2392501831054690,54.3389015197753900,53,100,89,78,83,15174,2147757485,2147418998,2148008859,2147873380,2147644004,2147070299,2148257325,2147204324,365,4,13,28588
1334153507,5809,1018.0100097656250000,45.4534416198730500,672.1428833007812000,4.2273831367492680,54.3382682800293000,52,98,89,79,83,15172,2147759094,2147421092,2148006317,2147874340,2147642715,2147065764,2148262784,2147200877,200,4,13,62871
1334157107,5810,1011.1300048828125000,45.5614585876464840,672.2343139648438000,4.2243609428405760,54.3195381164550800,53,100,89,80,84,15169,2147761618,2147421622,2148006966,2147874459,2147644434,2147070546,2148261266,2147205942,609,4,13,43701
1334160707,5808,1012.1900024414062000,45.9134483337402340,673.7559814453125000,4.1740422248840330,54.2920799255371100,53,100,87,81,83,15170,2147760521,2147421723,2148006308,2147872265,2147645156,2147068672,2148264621,2147199113,3582,4,14,3458
1334164307,5811,1011.2500000000000000,45.9882888793945300,673.3067016601562000,4.1889019012451170,54.2713508605957000,52,145,88,80,84,15170,2147759414,2147418185,2148007378,2147871753,2147646317,2147063780,2148262043,2147202496,3527,4,14,36613
1334167907,5809,1010.8300170898438000,46.4148216247558600,674.2034912109375000,4.1592411994934080,54.2274894714355500,53,99,88,79,83,15165,2147759378,2147421156,2148006354,2147874148,2147645330,2147063716,2148265188,2147201152,3257,4,13,38776
1334171507,5809,1010.6099853515625000,46.4379806518554700,675.3126831054688000,4.1225399971008300,54.2351188659668000,53,101,87,79,84,15156,2147762102,2147420406,2148007085,2147875044,2147644196,2147060059,2148258157,2147197376,442,4,13,40496
1334175107,5810,1020.3599853515625000,46.5685691833496100,674.2030029296875000,4.1592559814453125,54.2042617797851560,53,99,92,79,84,15155,2147763501,2147417417,2148006683,2147876388,2147645595,2147071305,2148265444,2147198546,3092,4,13,64080
1334178707,5809,1022.7000122070312000,46.2730484008789060,672.5371093750000000,4.2143521308898930,54.2245292663574200,53,166,91,79,84,15143,2147760521,2147420864,2148007552,2147871460,2147642368,2147064393,2148262473,2147202779,596,4,13,9463
1334182307,5811,1026.4399414062500000,46.0144309997558600,672.3829956054688000,4.2194461822509770,54.2608108520507800,53,99,89,80,84,15157,2147759442,2147422592,2148004754,2147873078,2147645293,2147067090,2148261421,2147199680,508,4,13,54355
1334185907,5807,1028.2099609375000000,45.6208801269531250,672.2041015625000000,4.2253608703613280,54.3117790222168000,53,98,92,79,85,15156,2147762550,2147420525,2148007552,2147874029,2147642624,2147062637,2148264768,2147202898,191,4,14,17620
1334189507,5810,1019.9600219726562000,45.7882499694824200,672.8002929687500000,4.2056479454040530,54.2978401184082000,52,100,89,80,83,15155,2147759707,2147419099,2148007442,2147874093,2147647149,2147063387,2148268443,2147199945,142,4,13,59764
1334193107,5809,1015.0800170898438000,46.1361808776855500,673.3933715820312000,4.1860351562500000,54.2545013427734400,53,102,86,80,84,15148,2147762102,2147418669,2148007862,2147877193,2147644077,2147060077,2148263835,2147201014,361,4,13,1390
1334196707,5808,1009.5000000000000000,46.3455505371093750,674.2335205078125000,4.1582469940185550,54.2350997924804700,53,102,90,80,84,15154,2147758656,2147419081,2148009142,2147873152,2147646802,2147066020,2148261348,2147199085,42,5,13,38982
1334200307,5809,1017.9000244140625000,46.6261901855468750,674.5718994140625000,4.1470527648925780,54.1997108459472660,53,101,94,79,85,15156,2147763008,2147421348,2148003200,2147873956,2147642413,2147062674,2148261248,2147201901,3458,4,13,53446
1334203907,5807,1011.6300048828125000,46.3716888427734400,674.7907714843750000,4.1398091316223145,54.2373695373535160,53,101,89,80,83,15151,2147759908,2147420068,2148007789,2147875757,2147645101,2147063414,2148260608,2147199616,171,5,13,32510
1334207507,5809,1024.8299560546875000,46.6206512451171900,675.1027832031250000,4.1294860839843750,54.2102584838867200,52,99,86,80,84,15155,2147760658,2147419181,2148005933,2147875218,2147644150,2147061046,2148263926,2147201417,253,4,13,45914
1334211107,5810,1025.1899414062500000,46.4379615783691400,674.0134887695312000,4.1655249595642090,54.2164497375488300,52,100,91,79,83,15153,2147760356,2147423369,2148005284,2147875675,2147646994,2147064064,2148265170,2147205202,210,4,13,42106
1334214707,5807,1024.7099609375000000,46.1695899963378900,674.1467895507812000,4.1611161231994630,54.2599296569824200,53,100,90,79,83,15148,2147759369,2147420096,2148003739,2147872850,2147646436,2147065472,2148260809,2147198070,3407,4,13,15145
1334218307,5807,1018.8800048828125000,46.1550483703613300,674.1392822265625000,4.1613640785217285,54.2644386291503900,53,99,90,80,84,15151,2147761024,2147418642,2148003346,2147876516,2147645686,2147066404,2148262061,2147204150,385,4,13,24054
1334221907,5810,1016.9299926757812000,46.3513603210449200,674.7064819335938000,4.1425991058349610,54.2434997558593750,52,102,86,79,84,15151,2147762486,2147420571,2148005997,2147874084,2147644736,2147063844,2148264173,2147200484,3519,4,13,65472
1334225507,5807,1025.5600585937500000,46.3096618652343750,674.1364135742188000,4.1614608764648440,54.2403907775878900,52,100,90,79,84,15147,2147761069,2147418816,2148007533,2147875245,2147642624,2147064841,2148258962,2147201033,336,4,13,37106
1334229107,5813,1021.4199829101562000,45.6600990295410160,674.2470703125000000,4.1577987670898440,54.3346595764160160,52,100,86,78,83,15154,2147758985,2147418925,2148006052,2147876269,2147643410,2147067840,2148263259,2147200658,261,4,13,54379
1334232707,5811,1028.4699707031250000,45.4815406799316400,672.7354125976562000,4.2077960968017580,54.3386001586914060,53,100,88,79,84,15152,2147760100,2147419995,2148002578,2147876288,2147640749,2147065499,2148263094,2147201755,3319,4,13,16399
1334236307,5808,1019.4199829101562000,45.9015197753906250,673.6312255859375000,4.1781687736511230,54.2945289611816400,52,102,87,80,85,15152,2147759341,2147420022,2148008310,2147872411,2147644836,2147063808,2148261302,2147200548,3559,4,13,39593
1334239907,5811,1020.0700073242188000,46.1569099426269500,675.2797241210938000,4.1236310005187990,54.2769203186035160,53,101,92,79,84,15152,2147761334,2147419849,2148004672,2147875227,2147646098,2147067913,2148264310,2147201124,203,4,13,11187
1334243507,5807,1019.3099975585938000,46.4509506225585940,675.1414794921875000,4.1282019615173340,54.2305984497070300,52,103,85,79,85,15144,2147759451,2147422701,2148007597,2147875483,2147643794,2147067300,2148260452,2147198482,244,4,13,62718
1334247107,5806,1022.2199707031250000,45.9660301208496100,674.1923828125000000,4.1596069335937500,54.2853202819824200,53,101,89,79,84,15152,2147758500,2147418797,2148006509,2147873920,2147642258,2147060224,2148262418,2147200438,168,5,13,31517
1334250707,5808,1020.4299926757812000,46.1459388732910160,675.2957763671875000,4.1230978965759280,54.2719802856445300,51,97,90,81,84,15152,2147755757,2147418194,2148008201,2147876973,2147643373,2147068068,2148255670,2147199652,132,4,13,46171
1334254307,5811,1024.2500000000000000,46.1849517822265600,674.3991699218750000,4.1527628898620605,54.2567710876464840,53,99,93,81,84,15151,2147758482,2147421339,2148010496,2147876425,2147645065,2147065472,2148259291,2147202313,283,5,13,64998
1334257907,5809,1020.5200195312500000,45.6853790283203100,674.3079833984375000,4.1557807922363280,54.3298988342285160,53,99,89,79,82,15146,2147761600,2147421037,2148007204,2147875062,2147644964,2147067099,2148258989,2147207661,233,4,13,60968
1334260555,5804,1026.1800537109375000,46.7144508361816400,674.8168945312500000,4.1389451026916500,54.1904296875000000,53,99,90,80,84,15252,2147758409,2147421193,2148008804,2147878592,2147646500,2147062409,2148263798,2147202770,134,4,13,53122
